Location: Chacón
(10.5789°N, 66.9317°W)
Time: 23:30:18
(UTC+00:00)

Cosmos 1339 Rocket - Pass Details

Date: 16 August 2024
Orbit: 941 x 1006 km, 82.9° (Epoch: 12 September)

Event Time Altitude Azimuth Distance (km) Brightness Sun altitude
Rises 23:55:53 0° 325° (NW) 3,601 8.3 -17.4°
Reaches altitude 10° 23:59:27 10° 304° (NW) 2,665 7.9 -18.2°
Maximum altitude 00:02:50 15° 270° (W) 2,299 7.4 -19.0°
Drops below altitude 10° 00:06:15 10° 235° (SW) 2,686 7.3 -19.8°
Sets 00:09:54 0° 214° (SW) 3,646 7.7 -20.6°
